Location: �bnet
(46.9957°N, 8.4908°E)
Time: 09:35:39
(UTC+00:00)

SL-8 Rocket - Pass Details

Date: 11 May 2021
Orbit: 957 x 990 km, 82.9° (Epoch: 14 June)

Event Time Altitude Azimuth Distance (km) Brightness Sun altitude
Rises 22:30:56 0° 348° (NNW) 3,716 8.5 -23.9°
Reaches altitude 10° 22:33:29 10° 346° (NNW) 2,763 7.5 -24.0°
Maximum altitude 22:39:45 66° 266° (W) 1,074 4.1 -24.2°
Enters shadow 22:41:33 46° 205° (SSW) 1,296 4.3 -24.2°
